Regional Weather Roundup
Issued by NWS Green Bay, WI

Home | Current Version | Previous Version | Graphics & Text | Print | Product List | Glossary Off
Versions: 1 2 3 4 5 6 7 8 9 10 11 12 13 14 15 16 17 18 19 20 21 22 23 24 25 26 27 28 29 30 31 32 33 34 35 36 37 38 39 40 41 42 43 44 45 46 47 48 49 50

000
ASUS43 KGRB 071700
RWRGRB

NORTH-CENTRAL AND NORTHEAST WISCONSIN REGIONAL WEATHER ROUNDUP
NATIONAL WEATHER SERVICE GREEN BAY WI
1100 AM CST WED DEC 07 2016

WIZ005-009-010>012-018-019-071800-
NORTH CENTRAL WISCONSIN

CITY           SKY/WX    TMP DP  RH WIND       PRES   REMARKS
IRONWOOD       NOT AVBL
MANITOWISH WTR NOT AVBL
ARBOR VITAE    NOT AVBL
EAGLE RIVER    NOT AVBL
LAND O LAKES   NOT AVBL
RHINELANDER    LGT SNOW  17  12  80 W22G32    29.80R WCI   0
PHILLIPS       NOT AVBL
ANTIGO         NOT AVBL
TOMAHAWK       NOT AVBL
MERRILL        NOT AVBL
$$

WIZ013-073-071800-
NORTHEAST WISCONSIN

CITY           SKY/WX    TMP DP  RH WIND       PRES   REMARKS
IRON MOUNTAIN  NOT AVBL
MARINETTE      NOT AVBL
$$

WIZ017-030-035>037-045-071800-
CENTRAL WISCONSIN

CITY           SKY/WX    TMP DP  RH WIND       PRES   REMARKS
MEDFORD        NOT AVBL
WAUSAU         FLURRIES  19  12  74 W16G24    29.89S WCI   4
MOSINEE        FLURRIES  18  14  86 W18G25    29.92R WCI   2
MARSHFIELD     CLOUDY    19  11  70 W18G26    29.91S WCI   4
WISC RAPIDS    PTSUNNY   21  13  71 W13G22    29.97S WCI   9
STEVENS POINT  NOT AVBL
WAUPACA        NOT AVBL
SHAWANO        NOT AVBL
CLINTONVILLE   NOT AVBL
WAUTOMA        FLURRIES  22  14  71 W20       29.98F WCI   7
$$

WIZ038-039-048-051-071800-
FOX VALLEY

CITY           SKY/WX    TMP DP  RH WIND       PRES   REMARKS
NWS GREEN BAY  FLURRIES  25  16  68 W24G36    29.92F WCI   9
APPLETON       PTSUNNY   21  12  68 W20       29.94R WCI   6
OSHKOSH        PTSUNNY   23  14  68 W15G24    29.97S
FOND DU LAC    PTSUNNY   22  12  65 SW17G23   29.99S WCI   8
$$

WIZ022-050-052-071800-
EAST CENTRAL WISCONSIN

CITY           SKY/WX    TMP DP  RH WIND       PRES   REMARKS
EPHRAIM        NOT AVBL
WASHINGTON ISL NOT AVBL
STURGEON BAY   CLOUDY    24  16  71 SW23      29.88F WCI   9
MANITOWOC      NOT AVBL
SHEBOYGAN      SUNNY     24  15  68 W23       29.96S WCI   9
$$

LMZ563-521-522-541>543-071800-
LAKESHORE

STATION/POSITION TIME  TEMP    WIND        PRES    VSBY  WAVE
                       AIR SEA DIR/SP/G                  HT/PER
                 (UTC) (F)     (DEG/KT/KT) (MB)    (MI)  (FT/S)
SHEBOYGAN LKSHOR 1600   23     250/ 18/ 22 1015.7R
KEWAUNEE LKSHORE 1630   24     280/ 18/ 26 1012.6S
NORTHPORT PIER   1640   26     240/  9/ 18 1010.8S
SISTER BAY LKSHO 1553   28     300/ 23/ 29   N/A
CHAMBERS ISLAND  1640   24     230/ 12/ 20 1010.8S
MENOMINEE LKSHOR 1630   23     230/ 15/ 22 1011.1R
$$



USA.gov is the U.S. government's official web portal to all federal, state and local government web resources and services.